| time (UTC) | temp F | wind direction | speed knots | gust knots | rain 1hr in | rain 24hr in | rain mn in | humidity % | barometer mb |
| 20260507170056 | 50 | 294 | 3.5 | 12.2 | 0.00 | 0.30 | 0.00 | 42 | 1006.4 |
| 20260507165547 | 50 | 212 | 4.3 | 13.9 | 0.00 | 0.42 | 0.00 | 42 | 1006.6 |
| 20260507165045 | 51 | 164 | 2.6 | 13.9 | 0.00 | 0.42 | 0.00 | 46 | 1006.7 |
| 20260507164556 | 50 | 252 | 1.7 | 9.6 | 0.00 | 0.42 | 0.00 | 47 | 1006.7 |
| 20260507164048 | 50 | 186 | 2.6 | 9.6 | 0.00 | 0.42 | 0.00 | 43 | 1006.9 |
| 20260507163549 | 50 | 257 | 1.7 | 9.6 | 0.00 | 0.42 | 0.00 | 44 | 1006.8 |
| 20260507163058 | 49 | 303 | 4.3 | 8.7 | 0.00 | 0.42 | 0.00 | 46 | 1006.9 |
| 20260507162549 | 49 | 207 | 2.6 | 12.2 | 0.00 | 0.42 | 0.00 | 46 | 1007.0 |
| 20260507162046 | 49 | 249 | 4.3 | 12.2 | 0.00 | 0.42 | 0.00 | 44 | 1007.1 |
| 20260507161558 | 49 | 227 | 2.6 | 11.3 | 0.00 | 0.42 | 0.00 | 45 | 1007.2 |
| 20260507161047 | 49 | 259 | 3.5 | 12.2 | 0.00 | 0.42 | 0.00 | 48 | 1007.2 |
| 20260507160545 | 49 | 216 | 4.3 | 16.5 | 0.00 | 0.42 | 0.00 | 48 | 1007.3 |
| 20260507160056 | 47 | 269 | 6.1 | 16.5 | 0.00 | 0.42 | 0.00 | 48 | 1007.4 |
| 20260507155545 | 48 | 273 | 4.3 | 13.9 | 0.00 | 0.50 | 0.00 | 45 | 1007.3 |
| 20260507155047 | 48 | 195 | 3.5 | 14.8 | 0.00 | 0.50 | 0.00 | 50 | 1007.2 |
| 20260507154600 | 47 | 265 | 7.8 | 14.8 | 0.00 | 0.50 | 0.00 | 51 | 1007.4 |
| 20260507154048 | 47 | 202 | 5.2 | 20.0 | 0.00 | 0.50 | 0.00 | 48 | 1007.3 |
| 20260507153548 | 47 | 263 | 7.8 | 20.0 | 0.00 | 0.50 | 0.00 | 49 | 1007.4 |
| 20260507153054 | 47 | 298 | 5.2 | 15.6 | 0.00 | 0.50 | 0.00 | 51 | 1007.5 |
| 20260507152546 | 47 | 242 | 7.8 | 20.9 | 0.00 | 0.50 | 0.00 | 52 | 1007.4 |
| 20260507152048 | 47 | 191 | 6.1 | 21.7 | 0.00 | 0.50 | 0.00 | 55 | 1007.4 |
| 20260507151557 | 46 | 261 | 8.7 | 21.7 | 0.00 | 0.50 | 0.00 | 53 | 1007.3 |
| 20260507151048 | 47 | 250 | 4.3 | 17.4 | 0.00 | 0.50 | 0.00 | 52 | 1007.4 |
| 20260507150548 | 46 | 223 | 7.0 | 17.4 | 0.00 | 0.50 | 0.00 | 52 | 1007.3 |
| 20260507150106 | 47 | 270 | 5.2 | 17.4 | 0.00 | 0.50 | 0.00 | 53 | 1007.3 |
| 20260507145546 | 46 | 211 | 6.1 | 15.6 | 0.00 | 0.55 | 0.00 | 54 | 1007.2 |
| 20260507145047 | 46 | 244 | 3.5 | 13.0 | 0.00 | 0.55 | 0.00 | 59 | 1007.3 |
| 20260507144606 | 46 | 246 | 3.5 | 13.0 | 0.00 | 0.55 | 0.00 | 63 | 1007.2 |
| 20260507144049 | 45 | 259 | 4.3 | 13.0 | 0.00 | 0.55 | 0.00 | 62 | 1007.3 |
| 20260507143549 | 45 | 239 | 4.3 | 13.0 | 0.00 | 0.55 | 0.00 | 65 | 1007.3 |
| 20260507143102 | 45 | 259 | 2.6 | 9.6 | 0.00 | 0.55 | 0.00 | 67 | 1007.4 |
| 20260507142548 | 45 | 190 | 2.6 | 11.3 | 0.00 | 0.55 | 0.00 | 64 | 1007.4 |
| 20260507142048 | 45 | 18 | 3.5 | 11.3 | 0.00 | 0.55 | 0.00 | 66 | 1007.4 |
| 20260507141553 | 45 | 211 | 2.6 | 9.6 | 0.00 | 0.55 | 0.00 | 66 | 1007.5 |
| 20260507141048 | 45 | 301 | 2.6 | 9.6 | 0.00 | 0.55 | 0.00 | 68 | 1007.5 |
| 20260507140550 | 45 | 295 | 1.7 | 10.4 | 0.00 | 0.55 | 0.00 | 70 | 1007.5 |
| 20260507140053 | 44 | 250 | 2.6 | 11.3 | 0.00 | 0.55 | 0.00 | 70 | 1007.4 |
| 20260507135552 | 44 | 267 | 3.5 | 11.3 | 0.00 | 0.64 | 0.00 | 71 | 1007.5 |
| 20260507135048 | 44 | 221 | 3.5 | 8.7 | 0.00 | 0.64 | 0.00 | 72 | 1007.5 |
| 20260507134550 | 44 | 246 | 3.5 | 8.7 | 0.00 | 0.64 | 0.00 | 74 | 1007.5 |
| 20260507134049 | 44 | 232 | 0.9 | 12.2 | 0.00 | 0.64 | 0.00 | 72 | 1007.5 |
| 20260507133548 | 43 | 211 | 2.6 | 12.2 | 0.00 | 0.64 | 0.00 | 73 | 1007.5 |
| 20260507133100 | 44 | 255 | 2.6 | 8.7 | 0.00 | 0.64 | 0.00 | 76 | 1007.5 |
| 20260507132547 | 44 | 278 | 2.6 | 8.7 | 0.00 | 0.64 | 0.00 | 74 | 1007.4 |
| 20260507132047 | 43 | 239 | 2.6 | 7.8 | 0.00 | 0.64 | 0.00 | 78 | 1007.4 |
| 20260507131610 | 43 | 291 | 2.6 | 7.8 | 0.00 | 0.64 | 0.00 | 80 | 1007.3 |
| 20260507131049 | 42 | 292 | 0.9 | 7.0 | 0.00 | 0.64 | 0.00 | 82 | 1007.4 |
| 20260507130549 | 42 | 240 | 1.7 | 7.0 | 0.00 | 0.64 | 0.00 | 83 | 1007.5 |
| 20260507130052 | 43 | 155 | 1.7 | 7.0 | 0.00 | 0.64 | 0.00 | 86 | 1007.6 |
| 20260507125548 | 43 | 280 | 3.5 | 9.6 | 0.00 | 0.75 | 0.00 | 82 | 1007.5 |
| 20260507125049 | 42 | 225 | 3.5 | 9.6 | 0.00 | 0.75 | 0.00 | 84 | 1007.5 |
| 20260507124553 | 42 | 241 | 1.7 | 6.1 | 0.00 | 0.75 | 0.00 | 87 | 1007.5 |
| 20260507124048 | 41 | 269 | 0.9 | 6.1 | 0.00 | 0.75 | 0.00 | 89 | 1007.5 |
| 20260507123548 | 41 | 253 | 2.6 | 6.1 | 0.00 | 0.75 | 0.00 | 86 | 1007.5 |
| 20260507123051 | 41 | 0 | 0.9 | 3.5 | 0.00 | 0.75 | 0.00 | 89 | 1007.4 |
| 20260507122548 | 41 | 0 | 0.0 | 1.7 | 0.00 | 0.75 | 0.00 | 90 | 1007.4 |
| 20260507122049 | 41 | 227 | 0.0 | 4.3 | 0.00 | 0.75 | 0.00 | 90 | 1007.4 |
| 20260507121554 | 41 | 203 | 0.9 | 7.0 | 0.00 | 0.75 | 0.00 | 91 | 1007.2 |
| 20260507121048 | 41 | 234 | 1.7 | 7.0 | 0.00 | 0.75 | 0.00 | 91 | 1007.2 |
| 20260507120547 | 41 | 291 | 1.7 | 7.0 | 0.00 | 0.75 | 0.00 | 92 | 1007.3 |
| 20260507120058 | 41 | 255 | 1.7 | 7.0 | 0.00 | 0.75 | 0.00 | 93 | 1007.3 |
| 20260507115549 | 41 | 273 | 2.6 | 7.8 | 0.00 | 0.76 | 0.00 | 93 | 1007.3 |
| 20260507115047 | 41 | 266 | 1.7 | 7.8 | 0.00 | 0.76 | 0.00 | 95 | 1007.2 |
| 20260507114553 | 40 | 279 | 1.7 | 7.8 | 0.00 | 0.76 | 0.00 | 96 | 1007.1 |
| 20260507114047 | 40 | 347 | 0.0 | 1.7 | 0.00 | 0.76 | 0.00 | 96 | 1007.2 |
| 20260507113556 | 40 | 0 | 0.0 | 1.7 | 0.00 | 0.76 | 0.00 | 96 | 1007.1 |
| 20260507113100 | 40 | 152 | 0.0 | 1.7 | 0.00 | 0.76 | 0.00 | 96 | 1007.1 |
| 20260507112549 | 40 | 0 | 0.0 | 2.6 | 0.00 | 0.76 | 0.00 | 96 | 1007.0 |
| 20260507112047 | 40 | 0 | 0.0 | 2.6 | 0.00 | 0.76 | 0.00 | 96 | 1007.1 |
| 20260507111549 | 40 | 196 | 0.9 | 3.5 | 0.00 | 0.76 | 0.00 | 96 | 1007.1 |
| 20260507111048 | 40 | 154 | 0.9 | 3.5 | 0.00 | 0.76 | 0.00 | 95 | 1007.1 |
| 20260507110547 | 40 | 192 | 0.9 | 3.5 | 0.00 | 0.76 | 0.00 | 96 | 1007.2 |
| 20260507110053 | 40 | 208 | 0.9 | 2.6 | 0.00 | 0.76 | 0.00 | 96 | 1007.1 |
| 20260507105543 | 40 | 234 | 0.9 | 2.6 | 0.00 | 0.78 | 0.00 | 96 | 1007.2 |
| 20260507105048 | 40 | 198 | 0.0 | 2.6 | 0.00 | 0.78 | 0.00 | 96 | 1007.1 |
| 20260507104548 | 40 | 201 | 0.9 | 4.3 | 0.00 | 0.78 | 0.00 | 96 | 1007.0 |
| 20260507104047 | 40 | 202 | 0.9 | 4.3 | 0.00 | 0.78 | 0.00 | 96 | 1007.0 |
| 20260507103548 | 40 | 178 | 0.9 | 3.5 | 0.00 | 0.78 | 0.00 | 96 | 1007.0 |
| 20260507103052 | 39 | 224 | 0.9 | 2.6 | 0.00 | 0.78 | 0.00 | 96 | 1007.0 |
| 20260507102547 | 40 | 213 | 0.9 | 3.5 | 0.00 | 0.78 | 0.00 | 96 | 1006.9 |
| 20260507102049 | 40 | 196 | 0.9 | 3.5 | 0.00 | 0.78 | 0.00 | 96 | 1007.0 |
| 20260507101554 | 40 | 162 | 0.9 | 2.6 | 0.00 | 0.78 | 0.00 | 97 | 1007.0 |
| 20260507101048 | 40 | 204 | 0.0 | 3.5 | 0.00 | 0.78 | 0.00 | 97 | 1006.8 |
| 20260507100547 | 40 | 196 | 0.9 | 3.5 | 0.00 | 0.78 | 0.00 | 97 | 1006.9 |
| 20260507100049 | 40 | 219 | 1.7 | 3.5 | 0.00 | 0.78 | 0.00 | 97 | 1006.8 |
| 20260507095548 | 39 | 190 | 0.9 | 2.6 | 0.00 | 0.78 | 0.00 | 97 | 1006.8 |
| 20260507095048 | 39 | 0 | 0.0 | 1.7 | 0.00 | 0.78 | 0.00 | 97 | 1006.8 |
| 20260507094551 | 39 | 0 | 0.0 | 3.5 | 0.00 | 0.78 | 0.00 | 97 | 1006.7 |
| 20260507094048 | 39 | 185 | 0.0 | 3.5 | 0.00 | 0.78 | 0.00 | 97 | 1006.7 |
| 20260507093548 | 39 | 219 | 0.9 | 5.2 | 0.00 | 0.78 | 0.00 | 97 | 1006.9 |
| 20260507093054 | 39 | 0 | 0.9 | 5.2 | 0.00 | 0.78 | 0.00 | 97 | 1007.1 |
| 20260507092550 | 39 | 240 | 0.0 | 5.2 | 0.00 | 0.78 | 0.00 | 97 | 1007.1 |
| 20260507092049 | 38 | 239 | 0.0 | 5.2 | 0.00 | 0.78 | 0.00 | 97 | 1006.9 |
| 20260507091548 | 38 | 0 | 0.0 | 0.0 | 0.00 | 0.78 | 0.00 | 97 | 1006.9 |
| 20260507091050 | 38 | 0 | 0.0 | 0.0 | 0.00 | 0.78 | 0.00 | 97 | 1006.8 |
| 20260507090549 | 38 | 0 | 0.0 | 0.0 | 0.00 | 0.78 | 0.00 | 97 | 1006.9 |
| 20260507090049 | 38 | 0 | 0.0 | 0.0 | 0.00 | 0.78 | 0.00 | 97 | 1006.7 |
| 20260507085548 | 38 | 0 | 0.0 | 0.0 | 0.00 | 0.85 | 0.00 | 97 | 1006.8 |
| 20260507085048 | 39 | 0 | 0.0 | 0.0 | 0.00 | 0.85 | 0.00 | 97 | 1006.7 |
| 20260507084551 | 39 | 0 | 0.0 | 0.0 | 0.00 | 0.85 | 0.00 | 97 | 1006.8 |
| 20260507084048 | 39 | 0 | 0.0 | 0.0 | 0.00 | 0.85 | 0.00 | 97 | 1007.1 |
| 20260507083547 | 39 | 0 | 0.0 | 0.0 | 0.00 | 0.85 | 0.00 | 97 | 1007.2 |
| 20260507083050 | 39 | 0 | 0.0 | 0.0 | 0.00 | 0.85 | 0.00 | 97 | 1007.2 |
| 20260507082548 | 39 | 0 | 0.0 | 0.0 | 0.00 | 0.85 | 0.00 | 97 | 1007.2 |
| 20260507082048 | 39 | 0 | 0.0 | 0.0 | 0.00 | 0.85 | 0.00 | 97 | 1007.1 |
| 20260507081554 | 39 | 0 | 0.0 | 0.0 | 0.00 | 0.85 | 0.00 | 97 | 1007.2 |
| 20260507081048 | 39 | 0 | 0.0 | 0.9 | 0.00 | 0.85 | 0.00 | 97 | 1007.1 |
| 20260507080548 | 39 | 0 | 0.0 | 0.9 | 0.00 | 0.85 | 0.00 | 97 | 1007.1 |
| 20260507080115 | 39 | 143 | 0.0 | 0.0 | 0.00 | 0.85 | 0.00 | 97 | 1007.2 |
| 20260507075550 | 39 | 0 | 0.0 | 0.0 | 0.00 | 0.88 | 0.00 | 97 | 1007.2 |
| 20260507075051 | 39 | 0 | 0.0 | 1.7 | 0.00 | 0.88 | 0.00 | 97 | 1007.1 |
| 20260507074602 | 39 | 0 | 0.0 | 1.7 | 0.00 | 0.88 | 0.00 | 97 | 1007.1 |
| 20260507074047 | 39 | 0 | 0.0 | 1.7 | 0.00 | 0.88 | 0.00 | 97 | 1007.2 |
| 20260507073549 | 39 | 144 | 0.0 | 1.7 | 0.00 | 0.88 | 0.00 | 97 | 1007.1 |
| 20260507073100 | 39 | 60 | 0.0 | 0.9 | 0.00 | 0.88 | 0.00 | 97 | 1007.1 |
| 20260507072548 | 39 | 0 | 0.0 | 0.0 | 0.00 | 0.88 | 0.00 | 97 | 1007.1 |
| 20260507072051 | 39 | 0 | 0.0 | 1.7 | 0.00 | 0.88 | 0.00 | 97 | 1007.0 |
| 20260507071610 | 39 | 0 | 0.0 | 1.7 | 0.00 | 0.88 | 0.00 | 97 | 1006.8 |
| 20260507071048 | 39 | 0 | 0.0 | 0.9 | 0.00 | 0.88 | 0.00 | 97 | 1006.9 |
| 20260507070548 | 39 | 0 | 0.0 | 0.9 | 0.00 | 0.88 | 0.00 | 97 | 1006.8 |
| 20260507070057 | 39 | 0 | 0.0 | 1.7 | 0.00 | 0.88 | 0.00 | 97 | 1006.9 |
| 20260507065548 | 39 | 0 | 0.0 | 1.7 | 0.00 | 0.89 | 0.00 | 97 | 1006.9 |
| 20260507065048 | 40 | 95 | 0.0 | 0.9 | 0.00 | 0.89 | 0.00 | 97 | 1006.9 |
| 20260507064552 | 40 | 0 | 0.0 | 1.7 | 0.00 | 0.89 | 0.00 | 97 | 1006.8 |
| 20260507064049 | 39 | 0 | 0.0 | 1.7 | 0.00 | 0.89 | 0.00 | 97 | 1006.7 |
| 20260507063548 | 39 | 0 | 0.0 | 0.0 | 0.00 | 0.89 | 0.00 | 97 | 1006.7 |
| 20260507063056 | 40 | 0 | 0.0 | 0.0 | 0.00 | 0.89 | 0.00 | 97 | 1006.7 |
| 20260507062547 | 40 | 0 | 0.0 | 0.0 | 0.00 | 0.89 | 0.00 | 97 | 1007.0 |
| 20260507062048 | 40 | 0 | 0.0 | 0.0 | 0.00 | 0.89 | 0.00 | 97 | 1006.8 |
| 20260507061558 | 40 | 0 | 0.0 | 0.0 | 0.00 | 0.89 | 0.00 | 97 | 1006.8 |
| 20260507061049 | 40 | 0 | 0.0 | 0.9 | 0.00 | 0.89 | 0.00 | 97 | 1007.0 |
| 20260507060548 | 40 | 0 | 0.0 | 0.9 | 0.00 | 0.89 | 0.00 | 97 | 1006.8 |
| 20260507055548 | 40 | 0 | 0.0 | 0.0 | 0.00 | 0.91 | 0.00 | 97 | 1007.0 |
| 20260507055048 | 40 | 0 | 0.0 | 1.7 | 0.00 | 0.91 | 0.00 | 97 | 1007.0 |
| 20260507054602 | 40 | 0 | 0.0 | 1.7 | 0.00 | 0.91 | 0.00 | 97 | 1007.2 |
| 20260507054048 | 40 | 0 | 0.0 | 1.7 | 0.00 | 0.91 | 0.00 | 97 | 1007.4 |
| 20260507053551 | 40 | 0 | 0.0 | 1.7 | 0.00 | 0.91 | 0.00 | 97 | 1007.3 |
| 20260507053120 | 40 | 0 | 0.0 | 1.7 | 0.00 | 0.91 | 0.00 | 97 | 1007.1 |
| 20260507052547 | 40 | 338 | 0.0 | 1.7 | 0.00 | 0.91 | 0.00 | 97 | 1007.1 |
| 20260507052047 | 40 | 0 | 0.0 | 1.7 | 0.00 | 0.91 | 0.00 | 97 | 1007.4 |
| 20260507051601 | 40 | 0 | 0.0 | 0.9 | 0.00 | 0.91 | 0.00 | 97 | 1007.6 |
| 20260507051052 | 40 | 0 | 0.0 | 0.9 | 0.00 | 0.91 | 0.00 | 97 | 1007.6 |
| 20260507050548 | 40 | 16 | 0.9 | 0.9 | 0.00 | 0.91 | 0.00 | 97 | 1007.3 |
| 20260507050054 | 40 | 16 | 0.0 | 0.9 | 0.00 | 0.91 | 0.00 | 97 | 1007.5 |
| 20260507045548 | 40 | 0 | 0.0 | 0.0 | 0.00 | 1.02 | 0.00 | 97 | 1007.8 |
| 20260507045048 | 40 | 0 | 0.0 | 0.0 | 0.00 | 1.02 | 0.00 | 97 | 1007.9 |
| 20260507044555 | 40 | 0 | 0.0 | 0.0 | 0.00 | 1.02 | 0.00 | 97 | 1007.8 |
| 20260507044048 | 40 | 0 | 0.0 | 0.0 | 0.00 | 1.02 | 0.00 | 97 | 1007.6 |
| 20260507043548 | 40 | 0 | 0.0 | 0.0 | 0.00 | 1.02 | 0.00 | 97 | 1007.6 |
| 20260507043054 | 40 | 0 | 0.0 | 0.0 | 0.00 | 1.02 | 0.00 | 97 | 1007.6 |
| 20260507042548 | 40 | 0 | 0.0 | 0.0 | 0.00 | 1.02 | 0.00 | 97 | 1007.6 |
| 20260507042048 | 40 | 0 | 0.0 | 1.7 | 0.00 | 1.02 | 0.00 | 97 | 1007.7 |
| 20260507041557 | 41 | 0 | 0.0 | 1.7 | 0.00 | 1.02 | 0.00 | 97 | 1007.6 |
| 20260507041051 | 41 | 331 | 0.9 | 1.7 | 0.00 | 1.02 | 0.00 | 97 | 1007.7 |
| 20260507040548 | 41 | 0 | 0.0 | 1.7 | 0.00 | 1.02 | 0.00 | 97 | 1007.8 |
| 20260507040100 | 41 | 0 | 0.0 | 1.7 | 0.00 | 1.02 | 0.00 | 97 | 1007.8 |
| 20260507035548 | 40 | 44 | 0.0 | 1.7 | 0.00 | 1.12 | 1.02 | 97 | 1007.7 |
| 20260507035047 | 41 | 0 | 0.0 | 0.9 | 0.00 | 1.12 | 1.02 | 97 | 1007.6 |
| 20260507034552 | 41 | 0 | 0.0 | 0.9 | 0.00 | 1.12 | 1.02 | 97 | 1007.6 |
| 20260507034048 | 41 | 0 | 0.0 | 1.7 | 0.00 | 1.12 | 1.02 | 97 | 1007.7 |
| 20260507033548 | 41 | 0 | 0.0 | 1.7 | 0.00 | 1.12 | 1.02 | 97 | 1007.9 |
| 20260507033052 | 41 | 0 | 0.0 | 1.7 | 0.00 | 1.12 | 1.02 | 97 | 1008.0 |
| 20260507032549 | 41 | 0 | 0.0 | 1.7 | 0.00 | 1.12 | 1.02 | 97 | 1008.1 |
| 20260507032048 | 41 | 0 | 0.0 | 1.7 | 0.00 | 1.12 | 1.02 | 97 | 1007.9 |
| 20260507031556 | 41 | 0 | 0.0 | 0.0 | 0.00 | 1.12 | 1.02 | 97 | 1007.8 |
| 20260507031048 | 41 | 0 | 0.0 | 0.0 | 0.00 | 1.12 | 1.02 | 97 | 1008.0 |
| 20260507030548 | 41 | 0 | 0.0 | 1.7 | 0.01 | 1.12 | 1.02 | 97 | 1008.0 |
| 20260507030051 | 41 | 0 | 0.0 | 1.7 | 0.01 | 1.12 | 1.02 | 97 | 1007.9 |
| 20260507025548 | 41 | 0 | 0.0 | 1.7 | 0.01 | 1.13 | 1.02 | 97 | 1008.0 |
| 20260507025052 | 41 | 0 | 0.0 | 1.7 | 0.01 | 1.13 | 1.02 | 97 | 1008.1 |
| 20260507024603 | 41 | 93 | 0.0 | 1.7 | 0.01 | 1.13 | 1.02 | 97 | 1007.9 |
| 20260507024048 | 41 | 93 | 0.0 | 1.7 | 0.02 | 1.13 | 1.02 | 97 | 1007.7 |
| 20260507023548 | 41 | 83 | 0.0 | 0.0 | 0.02 | 1.13 | 1.02 | 97 | 1007.7 |
| 20260507023051 | 41 | 0 | 0.0 | 0.0 | 0.02 | 1.13 | 1.02 | 97 | 1008.0 |
| 20260507022549 | 41 | 0 | 0.0 | 0.0 | 0.03 | 1.13 | 1.02 | 97 | 1008.0 |
| 20260507022047 | 41 | 0 | 0.0 | 0.0 | 0.03 | 1.13 | 1.02 | 97 | 1008.0 |
| 20260507021551 | 41 | 0 | 0.0 | 1.7 | 0.03 | 1.13 | 1.02 | 97 | 1008.2 |
| 20260507021047 | 41 | 0 | 0.0 | 1.7 | 0.03 | 1.13 | 1.02 | 97 | 1008.1 |
| 20260507020553 | 41 | 0 | 0.0 | 1.7 | 0.02 | 1.12 | 1.01 | 97 | 1007.9 |
| 20260507020053 | 42 | 0 | 0.0 | 1.7 | 0.02 | 1.12 | 1.01 | 97 | 1007.9 |
| 20260507015550 | 42 | 83 | 0.9 | 1.7 | 0.03 | 1.12 | 1.01 | 97 | 1008.0 |
| 20260507015048 | 42 | 0 | 0.0 | 1.7 | 0.03 | 1.12 | 1.01 | 97 | 1008.1 |
| 20260507014603 | 42 | 0 | 0.9 | 1.7 | 0.02 | 1.11 | 1.00 | 97 | 1008.3 |
| 20260507014048 | 42 | 60 | 0.0 | 1.7 | 0.03 | 1.11 | 1.00 | 97 | 1008.2 |
| 20260507013551 | 42 | 0 | 0.0 | 1.7 | 0.04 | 1.11 | 1.00 | 97 | 1008.3 |
| 20260507013053 | 42 | 0 | 0.0 | 0.0 | 0.04 | 1.11 | 1.00 | 97 | 1008.3 |
| 20260507012552 | 42 | 0 | 0.0 | 0.0 | 0.04 | 1.10 | 0.99 | 97 | 1008.3 |
| 20260507012048 | 42 | 0 | 0.0 | 0.0 | 0.04 | 1.10 | 0.99 | 97 | 1008.2 |
| 20260507011603 | 42 | 0 | 0.0 | 1.7 | 0.04 | 1.10 | 0.99 | 97 | 1008.1 |
| 20260507011047 | 42 | 0 | 0.0 | 1.7 | 0.04 | 1.10 | 0.99 | 97 | 1007.9 |
| 20260507010548 | 42 | 0 | 0.0 | 1.7 | 0.04 | 1.10 | 0.99 | 97 | 1008.0 |
| 20260507010104 | 42 | 0 | 0.0 | 0.9 | 0.04 | 1.10 | 0.99 | 97 | 1007.8 |
| 20260507005548 | 42 | 0 | 0.0 | 1.7 | 0.03 | 1.09 | 0.98 | 97 | 1007.8 |
| 20260507005048 | 42 | 0 | 0.0 | 1.7 | 0.04 | 1.09 | 0.98 | 97 | 1007.6 |
| 20260507004606 | 42 | 60 | 0.0 | 1.7 | 0.04 | 1.09 | 0.98 | 97 | 1007.7 |
| 20260507004048 | 42 | 60 | 0.0 | 0.0 | 0.03 | 1.08 | 0.97 | 96 | 1007.6 |
| 20260507003549 | 42 | 0 | 0.0 | 0.0 | 0.02 | 1.07 | 0.96 | 96 | 1007.6 |
| 20260507003056 | 42 | 0 | 0.0 | 0.0 | 0.02 | 1.07 | 0.96 | 96 | 1007.4 |
| 20260507002548 | 42 | 0 | 0.0 | 1.7 | 0.01 | 1.05 | 0.95 | 96 | 1007.4 |
| 20260507002048 | 42 | 0 | 0.0 | 1.7 | 0.01 | 1.05 | 0.95 | 96 | 1007.3 |
| 20260507001555 | 42 | 60 | 0.0 | 1.7 | 0.01 | 1.05 | 0.95 | 96 | 1007.2 |
| 20260507001050 | 42 | 0 | 0.0 | 0.9 | 0.02 | 1.05 | 0.95 | 96 | 1007.1 |
| 20260507000548 | 42 | 0 | 0.0 | 3.5 | 0.02 | 1.05 | 0.95 | 96 | 1007.1 |
| 20260507000051 | 42 | 0 | 0.0 | 3.5 | 0.02 | 1.05 | 0.95 | 96 | 1006.8 |
| 20260506235550 | 42 | 42 | 0.0 | 2.6 | 0.03 | 1.05 | 0.95 | 96 | 1006.6 |
| 20260506235048 | 42 | 352 | 0.0 | 1.7 | 0.02 | 1.04 | 0.94 | 96 | 1006.6 |
| 20260506234554 | 42 | 49 | 0.0 | 1.7 | 0.02 | 1.04 | 0.94 | 96 | 1006.5 |
| 20260506234047 | 42 | 46 | 0.9 | 1.7 | 0.02 | 1.04 | 0.94 | 96 | 1006.7 |
| 20260506233548 | 42 | 64 | 0.0 | 3.5 | 0.02 | 1.04 | 0.94 | 96 | 1006.7 |
| 20260506233056 | 42 | 0 | 0.9 | 3.5 | 0.02 | 1.04 | 0.94 | 96 | 1006.4 |
| 20260506232548 | 42 | 13 | 0.9 | 4.3 | 0.02 | 1.04 | 0.94 | 96 | 1006.4 |
| 20260506232048 | 42 | 13 | 2.6 | 4.3 | 0.02 | 1.04 | 0.94 | 96 | 1006.4 |
| 20260506231558 | 42 | 34 | 1.7 | 3.5 | 0.02 | 1.04 | 0.94 | 96 | 1006.6 |
| 20260506231052 | 42 | 40 | 0.9 | 2.6 | 0.01 | 1.04 | 0.93 | 96 | 1006.4 |
| 20260506230546 | 42 | 48 | 0.0 | 1.7 | 0.02 | 1.04 | 0.93 | 96 | 1006.5 |
| 20260506230059 | 42 | 0 | 0.0 | 3.5 | 0.02 | 1.04 | 0.93 | 96 | 1006.5 |
| 20260506225550 | 42 | 0 | 0.0 | 3.5 | 0.01 | 1.03 | 0.92 | 96 | 1006.4 |
| 20260506225048 | 42 | 10 | 0.9 | 2.6 | 0.01 | 1.03 | 0.92 | 96 | 1006.4 |
| 20260506224556 | 43 | 0 | 0.0 | 1.7 | 0.01 | 1.03 | 0.92 | 96 | 1006.3 |
| 20260506224046 | 43 | 68 | 0.0 | 1.7 | 0.01 | 1.03 | 0.92 | 96 | 1006.4 |
| 20260506223552 | 43 | 0 | 0.0 | 1.7 | 0.01 | 1.03 | 0.92 | 96 | 1006.6 |
| 20260506223100 | 43 | 0 | 0.0 | 3.5 | 0.01 | 1.03 | 0.92 | 96 | 1006.5 |
| 20260506222549 | 43 | 39 | 0.9 | 3.5 | 0.01 | 1.03 | 0.92 | 96 | 1006.4 |
| 20260506222047 | 43 | 0 | 0.0 | 2.6 | 0.01 | 1.03 | 0.92 | 97 | 1006.4 |
| 20260506221555 | 43 | 0 | 0.9 | 2.6 | 0.01 | 1.03 | 0.92 | 97 | 1006.2 |
| 20260506221048 | 43 | 43 | 0.9 | 2.6 | 0.01 | 1.03 | 0.92 | 97 | 1006.1 |
| 20260506220550 | 43 | 63 | 0.9 | 2.6 | 0.01 | 1.02 | 0.91 | 97 | 1006.2 |
| 20260506220056 | 43 | 69 | 0.9 | 2.6 | 0.01 | 1.02 | 0.91 | 97 | 1006.3 |
| 20260506215551 | 43 | 51 | 0.9 | 3.5 | 0.01 | 1.07 | 0.91 | 97 | 1006.2 |
| 20260506215048 | 43 | 44 | 0.9 | 5.2 | 0.01 | 1.07 | 0.91 | 97 | 1006.2 |
| 20260506214602 | 43 | 0 | 1.7 | 5.2 | 0.02 | 1.07 | 0.91 | 97 | 1006.1 |
| 20260506214048 | 43 | 54 | 0.9 | 2.6 | 0.02 | 1.07 | 0.91 | 97 | 1006.1 |
| 20260506213547 | 43 | 0 | 0.0 | 2.6 | 0.02 | 1.07 | 0.91 | 97 | 1006.1 |
| 20260506213056 | 43 | 30 | 0.0 | 2.6 | 0.02 | 1.07 | 0.91 | 97 | 1006.1 |
| 20260506212547 | 43 | 94 | 0.9 | 2.6 | 0.02 | 1.07 | 0.91 | 97 | 1006.1 |
| 20260506212047 | 43 | 63 | 1.7 | 3.5 | 0.02 | 1.07 | 0.91 | 97 | 1006.0 |
| 20260506211603 | 43 | 73 | 0.0 | 3.5 | 0.02 | 1.07 | 0.91 | 97 | 1006.1 |
| 20260506211047 | 43 | 60 | 1.7 | 3.5 | 0.02 | 1.07 | 0.91 | 97 | 1006.2 |
| 20260506210548 | 43 | 64 | 0.0 | 3.5 | 0.01 | 1.05 | 0.90 | 97 | 1006.1 |
| 20260506210051 | 43 | 80 | 1.7 | 3.5 | 0.01 | 1.05 | 0.90 | 97 | 1006.0 |
| 20260506205548 | 43 | 103 | 0.0 | 2.6 | 0.01 | 1.10 | 0.90 | 97 | 1006.2 |
| 20260506205048 | 43 | 76 | 0.9 | 2.6 | 0.02 | 1.10 | 0.90 | 97 | 1006.2 |
| 20260506204552 | 43 | 0 | 0.0 | 1.7 | 0.01 | 1.09 | 0.89 | 97 | 1006.1 |
| 20260506204049 | 43 | 82 | 0.0 | 1.7 | 0.02 | 1.09 | 0.89 | 97 | 1006.2 |
| 20260506203549 | 43 | 82 | 0.0 | 1.7 | 0.02 | 1.09 | 0.89 | 97 | 1006.1 |
| 20260506203052 | 43 | 0 | 0.0 | 1.7 | 0.02 | 1.09 | 0.89 | 97 | 1006.0 |
| 20260506202548 | 43 | 0 | 0.0 | 1.7 | 0.03 | 1.09 | 0.89 | 97 | 1005.9 |
| 20260506202048 | 43 | 101 | 0.9 | 1.7 | 0.03 | 1.09 | 0.89 | 97 | 1005.9 |
| 20260506201549 | 43 | 91 | 0.9 | 2.6 | 0.03 | 1.09 | 0.89 | 96 | 1006.1 |
| 20260506201047 | 43 | 59 | 0.9 | 2.6 | 0.04 | 1.09 | 0.89 | 96 | 1006.0 |
| 20260506200552 | 43 | 59 | 0.9 | 2.6 | 0.04 | 1.09 | 0.89 | 96 | 1006.0 |
| 20260506200103 | 43 | 90 | 0.9 | 2.6 | 0.04 | 1.09 | 0.89 | 96 | 1006.0 |
| 20260506195548 | 43 | 30 | 0.9 | 3.5 | 0.04 | 1.31 | 0.89 | 96 | 1005.9 |
| 20260506195051 | 43 | 0 | 0.9 | 3.5 | 0.03 | 1.30 | 0.88 | 96 | 1006.2 |
| 20260506194557 | 43 | 61 | 0.9 | 3.5 | 0.03 | 1.30 | 0.88 | 96 | 1006.1 |
| 20260506194049 | 43 | 86 | 0.0 | 3.5 | 0.02 | 1.29 | 0.87 | 96 | 1005.9 |
| 20260506193549 | 43 | 32 | 1.7 | 4.3 | 0.02 | 1.29 | 0.87 | 96 | 1006.2 |
| 20260506193056 | 43 | 61 | 0.9 | 4.3 | 0.02 | 1.29 | 0.87 | 96 | 1006.0 |
| 20260506192548 | 43 | 67 | 0.9 | 4.3 | 0.01 | 1.28 | 0.86 | 96 | 1006.1 |
| 20260506192053 | 43 | 96 | 1.7 | 4.3 | 0.01 | 1.28 | 0.86 | 96 | 1006.2 |
| 20260506191605 | 43 | 61 | 0.9 | 4.3 | 0.01 | 1.28 | 0.86 | 96 | 1006.0 |
| 20260506191048 | 43 | 76 | 0.9 | 3.5 | 0.01 | 1.27 | 0.85 | 96 | 1006.1 |
| 20260506190548 | 43 | 0 | 1.7 | 4.3 | 0.01 | 1.27 | 0.85 | 96 | 1006.1 |
| 20260506190053 | 43 | 23 | 0.9 | 4.3 | 0.01 | 1.27 | 0.85 | 96 | 1006.1 |
| 20260506185548 | 43 | 67 | 0.0 | 4.3 | 0.02 | 1.27 | 0.85 | 96 | 1006.2 |
| 20260506185048 | 43 | 0 | 0.9 | 4.3 | 0.03 | 1.27 | 0.85 | 96 | 1006.2 |
| 20260506184552 | 43 | 83 | 0.9 | 8.7 | 0.03 | 1.27 | 0.85 | 96 | 1006.2 |
| 20260506184048 | 43 | 70 | 2.6 | 8.7 | 0.05 | 1.27 | 0.85 | 96 | 1006.2 |
| 20260506183549 | 43 | 46 | 1.7 | 5.2 | 0.06 | 1.27 | 0.85 | 96 | 1006.2 |
| 20260506183108 | 43 | 86 | 2.6 | 5.2 | 0.08 | 1.27 | 0.85 | 96 | 1006.2 |
| 20260506182548 | 43 | 70 | 0.9 | 4.3 | 0.09 | 1.27 | 0.85 | 96 | 1006.4 |
| 20260506182048 | 43 | 83 | 1.7 | 4.3 | 0.10 | 1.27 | 0.85 | 96 | 1006.4 |
| 20260506181601 | 43 | 65 | 1.7 | 4.3 | 0.11 | 1.27 | 0.85 | 96 | 1006.5 |
| 20260506181048 | 43 | 100 | 0.9 | 6.1 | 0.10 | 1.26 | 0.84 | 96 | 1006.7 |
| 20260506180550 | 43 | 126 | 0.9 | 6.1 | 0.11 | 1.26 | 0.84 | 96 | 1007.0 |
| 20260506180113 | 42 | 63 | 0.9 | 3.5 | 0.12 | 1.26 | 0.84 | 96 | 1006.9 |
| 20260506175546 | 42 | 55 | 0.9 | 7.0 | 0.11 | 1.25 | 0.83 | 96 | 1006.8 |
| 20260506175046 | 42 | 67 | 0.9 | 7.8 | 0.11 | 1.24 | 0.82 | 96 | 1007.0 |
| 20260506174554 | 42 | 66 | 1.7 | 7.8 | 0.11 | 1.23 | 0.81 | 96 | 1006.9 |
| 20260506174048 | 42 | 66 | 1.7 | 6.1 | 0.11 | 1.22 | 0.80 | 96 | 1006.9 |
| 20260506173551 | 43 | 73 | 2.6 | 6.1 | 0.11 | 1.21 | 0.79 | 96 | 1007.0 |
| 20260506173126 | 43 | 62 | 0.0 | 5.2 | 0.10 | 1.19 | 0.77 | 96 | 1006.9 |
| 20260506172545 | 43 | 63 | 1.7 | 5.2 | 0.10 | 1.17 | 0.76 | 96 | 1006.9 |
| 20260506172046 | 43 | 31 | 0.0 | 7.0 | 0.10 | 1.16 | 0.75 | 96 | 1006.9 |
| 20260506171556 | 43 | 0 | 1.7 | 7.0 | 0.10 | 1.16 | 0.74 | 96 | 1007.0 |
| 20260506171049 | 43 | 39 | 0.9 | 7.8 | 0.13 | 1.16 | 0.74 | 96 | 1006.9 |
| 20260506170550 | 43 | 44 | 2.6 | 7.8 | 0.12 | 1.15 | 0.73 | 96 | 1006.6 |